Prescott, AZ

5:57 AM MST on February 06, 2016 (GMT -0700)
Love

Weather History for KPRC - May, 2013

Change the Weather History Date:

Thursday, May 23, 2013

  Actual Average Record
Temperature  
Mean Temperature 68 °F 64 °F  
Max Temperature 80 °F 79 °F 93 °F (2000)
Min Temperature 55 °F 48 °F 32 °F (1975)
Degree Days  
Heating Degree Days 0    
Month to date heating degree days 85  
Since 1 July heating degree days 3901  
Cooling Degree Days 3    
Month to date cooling degree days 24  
Year to date cooling degree days 28  
Growing Degree Days 17 (Base 50)    
Moisture  
Dew Point 21 °F    
Average Humidity 17    
Maximum Humidity 32    
Minimum Humidity 11    
Precipitation  
Precipitation 0.00 in 0.01 in 0.21 in (2008)
Month to date precipitation 0.03 0.34  
Year to date precipitation 2.51 4.42  
Sea Level Pressure  
Sea Level Pressure 29.72 in    
Wind  
Wind Speed 12 mph (South)    
Max Wind Speed 26 mph    
Max Gust Speed 36 mph    
Visibility 10 miles    
Events      
T = Trace of Precipitation, MM = Missing Value Source: NWS Daily Summary

Daily Weather History Graph

Daily Weather History Graph

Search for Another Location

Airport or City:

Trip Planner

Search our weather history database for the weather conditions in past years. The results will help you decide how hot, cold, wet, or windy it might be!

Date:

Astronomy

May. 23, 2013 Rise Set
Actual Time 5:21 AM MST 7:31 PM MST
Civil Twilight 4:53 AM MST 8:00 PM MST
Nautical Twilight 4:18 AM MST 8:35 PM MST
Astronomical Twilight 3:40 AM MST 9:12 PM MST
Moon 6:11 PM MST (5/23) 4:05 AM MST (5/23)
Length of Visible Light 15h 07m
Length of Day
14h 10m
Waxing Gibbous, 97% of the Moon is Illuminated
May 23
Waxing Gibbous
May 24
Full
May 31
Last Quarter
Jun 8
New
Jun 16
First Quarter

Hourly Weather History & Observations

Time (MST) Temp. Dew Point Humidity Pressure Visibility Wind Dir Wind Speed Gust Speed Precip Events Conditions
12:53 AM 63.0 °F 19.9 °F 19% 29.65 in 10.0 mi SSW 11.5 mph - N/A   Clear
1:53 AM 62.1 °F 23.0 °F 22% 29.66 in 10.0 mi SW 8.1 mph - N/A   Clear
2:53 AM 59.0 °F 26.1 °F 28% 29.67 in 10.0 mi SSW 3.5 mph - N/A   Clear
3:53 AM 55.9 °F 26.1 °F 32% 29.67 in 10.0 mi South 3.5 mph - N/A   Clear
4:53 AM 60.1 °F 21.9 °F 23% 29.68 in 10.0 mi SE 9.2 mph - N/A   Clear
5:53 AM 57.9 °F 21.9 °F 25% 29.70 in 10.0 mi ESE 8.1 mph - N/A   Clear
6:53 AM 61.0 °F 23.0 °F 23% 29.72 in 10.0 mi SE 9.2 mph - N/A   Clear
7:53 AM 64.9 °F 25.0 °F 22% 29.74 in 10.0 mi SE 12.7 mph 18.4 mph N/A   Clear
8:53 AM 70.0 °F 26.1 °F 19% 29.73 in 10.0 mi SSE 9.2 mph - N/A   Clear
9:53 AM 73.9 °F 24.1 °F 16% 29.72 in 10.0 mi South 13.8 mph 23.0 mph N/A   Clear
10:53 AM 75.9 °F 19.0 °F 12% 29.72 in 10.0 mi South 11.5 mph 20.7 mph N/A   Clear
11:53 AM 78.1 °F 19.0 °F 11% 29.73 in 10.0 mi South 13.8 mph 26.5 mph N/A   Clear
12:53 PM 78.1 °F 19.9 °F 11% 29.73 in 10.0 mi South 18.4 mph 26.5 mph N/A   Clear
1:53 PM 79.0 °F 19.9 °F 11% 29.73 in 10.0 mi South 21.9 mph 31.1 mph N/A   Clear
2:53 PM 78.1 °F 19.0 °F 11% 29.73 in 10.0 mi South 17.3 mph 32.2 mph N/A   Clear
3:53 PM 78.1 °F 19.9 °F 11% 29.73 in 10.0 mi South 21.9 mph 29.9 mph N/A   Clear
4:53 PM 77.0 °F 19.0 °F 11% 29.71 in 10.0 mi South 20.7 mph 31.1 mph N/A   Clear
5:53 PM 75.0 °F 19.0 °F 12% 29.72 in 10.0 mi South 15.0 mph 24.2 mph N/A   Clear
6:53 PM 73.0 °F 17.1 °F 12% 29.73 in 10.0 mi SSW 17.3 mph 24.2 mph N/A   Clear
7:53 PM 70.0 °F 21.0 °F 16% 29.74 in 10.0 mi SSW 6.9 mph - N/A   Clear
8:53 PM 66.9 °F 18.0 °F 15% 29.75 in 10.0 mi South 4.6 mph - N/A   Clear
9:53 PM 68.0 °F 17.1 °F 14% 29.76 in 10.0 mi SE 6.9 mph - N/A   Clear
10:53 PM 62.1 °F 18.0 °F 18% 29.78 in 10.0 mi SSE 5.8 mph - N/A   Clear
11:53 PM 60.1 °F 18.0 °F 20% 29.79 in 10.0 mi WSW 4.6 mph - N/A   Clear